Погода в Краскине

Россия / Приморский край     42°42′38″N   130°47′00″E
темп.,
°C
ветер,
м/с
пор.,
м/с
влажн.,
%
обл.,
%
осадки,
мм/ч
давл.,
гПа
погр.,
м
9 мая, вс
вс901:00+7зюз31088100 0.1 995953
04:00+7з51385100 0.3 9941199
07:00+6зсз51386100 0.1 9951004
10:00+7зсз51181100 0.2 997978
13:00+8зсз71380100 0.1 9981138
16:00+11сз7146379 0.3 9991057
19:00+10сз61269100 0.0 1002851
22:00+8сз511799 0.0 1006534
10 мая, пн
пн1001:00+8зсз4108044 0.0 1007338
04:00+7сз358548 0.0 1008124
07:00+6сз24885 0.0 101091
10:00+12зсз365840 0.0 1011995
13:00+13сз355596 0.0 10121007
16:00+16зсз2638100 0.0 10091897
19:00+11вюв377120 0.3 1012263
22:00+8всв22830 0.4 101429
11 мая, вт
вт1101:00+7с22871 0.0 101512
04:00+6ссз22890 0.0 101518
07:00+6с12865 0.0 101639
10:00+12ююв11630 0.0 1017454
13:00+12ююв446637 0.0 1017747
16:00+11ююв466714 0.0 1017505
19:00+10ююв367265 0.0 1018329
22:00+8вюв3588100 0.0 1019130
12 мая, ср
ср1201:00+7в3593100 0.0 1019174
04:00+6в369651 0.0 1019242
07:00+7в4892100 0.0 1019406
10:00+8вюв51292100 0.1 1017460
13:00+9юв4895100 0.6 1016363
16:00+9юв4898100 5.6 1015306
19:00+9вюв3798100 1.0 1014302
22:00+8вюв2499100 3.7 1015113
13 мая, чт
чт1301:00+8в1299100 0.0 101561
04:00+9ссз1198100 0.0 101528
07:00+9сз119480 0.0 101539
10:00+13ююз1281100 0.0 1014324
13:00+15ююв3371100 0.0 1014538
16:00+12юв1283100 0.0 1014169
19:00+12юв2283100 0.0 1013117
22:00+10в228991 0.0 101346